Index of /20260430/WXO-DD/model_gdps/15km/12/009
Name Last modified Size Description
Parent Directory -
20260430T12Z_MSC_GDPS_AbsoluteVorticity_IsbL-0200_LatLon0.15_PT009H.grib2 2026-04-30 15:51 1.5M
20260430T12Z_MSC_GDPS_AbsoluteVorticity_IsbL-0250_LatLon0.15_PT009H.grib2 2026-04-30 15:51 1.3M
20260430T12Z_MSC_GDPS_AbsoluteVorticity_IsbL-0500_LatLon0.15_PT009H.grib2 2026-04-30 15:51 1.5M
20260430T12Z_MSC_GDPS_AbsoluteVorticity_IsbL-0700_LatLon0.15_PT009H.grib2 2026-04-30 15:51 1.3M
20260430T12Z_MSC_GDPS_AbsoluteVorticity_IsbL-0850_LatLon0.15_PT009H.grib2 2026-04-30 15:51 1.6M
20260430T12Z_MSC_GDPS_AirTemp_AGL-120m_LatLon0.15_PT009H.grib2 2026-04-30 15:51 912K
20260430T12Z_MSC_GDPS_AirTemp_AGL-2m_LatLon0.15_PT009H.grib2 2026-04-30 15:51 1.0M
20260430T12Z_MSC_GDPS_AirTemp_AGL-40m_LatLon0.15_PT009H.grib2 2026-04-30 15:51 819K
20260430T12Z_MSC_GDPS_AirTemp_AGL-80m_LatLon0.15_PT009H.grib2 2026-04-30 15:51 805K
20260430T12Z_MSC_GDPS_AirTemp_IsbL-0001_LatLon0.15_PT009H.grib2 2026-04-30 15:51 657K
20260430T12Z_MSC_GDPS_AirTemp_IsbL-0005_LatLon0.15_PT009H.grib2 2026-04-30 15:51 688K
20260430T12Z_MSC_GDPS_AirTemp_IsbL-0010_LatLon0.15_PT009H.grib2 2026-04-30 15:51 764K
20260430T12Z_MSC_GDPS_AirTemp_IsbL-0020_LatLon0.15_PT009H.grib2 2026-04-30 15:51 791K
20260430T12Z_MSC_GDPS_AirTemp_IsbL-0030_LatLon0.15_PT009H.grib2 2026-04-30 15:51 755K
20260430T12Z_MSC_GDPS_AirTemp_IsbL-0050_LatLon0.15_PT009H.grib2 2026-04-30 15:51 810K
20260430T12Z_MSC_GDPS_AirTemp_IsbL-0100_LatLon0.15_PT009H.grib2 2026-04-30 15:51 1.0M
20260430T12Z_MSC_GDPS_AirTemp_IsbL-0150_LatLon0.15_PT009H.grib2 2026-04-30 15:51 1.0M
20260430T12Z_MSC_GDPS_AirTemp_IsbL-0175_LatLon0.15_PT009H.grib2 2026-04-30 15:51 964K
20260430T12Z_MSC_GDPS_AirTemp_IsbL-0200_LatLon0.15_PT009H.grib2 2026-04-30 15:51 1.0M
20260430T12Z_MSC_GDPS_AirTemp_IsbL-0225_LatLon0.15_PT009H.grib2 2026-04-30 15:51 1.0M
20260430T12Z_MSC_GDPS_AirTemp_IsbL-0250_LatLon0.15_PT009H.grib2 2026-04-30 15:51 1.0M
20260430T12Z_MSC_GDPS_AirTemp_IsbL-0275_LatLon0.15_PT009H.grib2 2026-04-30 15:51 1.0M
20260430T12Z_MSC_GDPS_AirTemp_IsbL-0300_LatLon0.15_PT009H.grib2 2026-04-30 15:51 955K
20260430T12Z_MSC_GDPS_AirTemp_IsbL-0350_LatLon0.15_PT009H.grib2 2026-04-30 15:51 939K
20260430T12Z_MSC_GDPS_AirTemp_IsbL-0400_LatLon0.15_PT009H.grib2 2026-04-30 15:51 948K
20260430T12Z_MSC_GDPS_AirTemp_IsbL-0450_LatLon0.15_PT009H.grib2 2026-04-30 15:51 968K
20260430T12Z_MSC_GDPS_AirTemp_IsbL-0500_LatLon0.15_PT009H.grib2 2026-04-30 15:51 770K
20260430T12Z_MSC_GDPS_AirTemp_IsbL-0550_LatLon0.15_PT009H.grib2 2026-04-30 15:51 806K
20260430T12Z_MSC_GDPS_AirTemp_IsbL-0600_LatLon0.15_PT009H.grib2 2026-04-30 15:51 900K
20260430T12Z_MSC_GDPS_AirTemp_IsbL-0650_LatLon0.15_PT009H.grib2 2026-04-30 15:51 924K
20260430T12Z_MSC_GDPS_AirTemp_IsbL-0700_LatLon0.15_PT009H.grib2 2026-04-30 15:51 958K
20260430T12Z_MSC_GDPS_AirTemp_IsbL-0750_LatLon0.15_PT009H.grib2 2026-04-30 15:51 1.0M
20260430T12Z_MSC_GDPS_AirTemp_IsbL-0800_LatLon0.15_PT009H.grib2 2026-04-30 15:51 1.1M
20260430T12Z_MSC_GDPS_AirTemp_IsbL-0850_LatLon0.15_PT009H.grib2 2026-04-30 15:51 1.1M
20260430T12Z_MSC_GDPS_AirTemp_IsbL-0875_LatLon0.15_PT009H.grib2 2026-04-30 15:51 1.1M
20260430T12Z_MSC_GDPS_AirTemp_IsbL-0900_LatLon0.15_PT009H.grib2 2026-04-30 15:51 1.1M
20260430T12Z_MSC_GDPS_AirTemp_IsbL-0925_LatLon0.15_PT009H.grib2 2026-04-30 15:51 1.1M
20260430T12Z_MSC_GDPS_AirTemp_IsbL-0950_LatLon0.15_PT009H.grib2 2026-04-30 15:51 1.1M
20260430T12Z_MSC_GDPS_AirTemp_IsbL-0970_LatLon0.15_PT009H.grib2 2026-04-30 15:51 1.2M
20260430T12Z_MSC_GDPS_AirTemp_IsbL-0985_LatLon0.15_PT009H.grib2 2026-04-30 15:51 1.1M
20260430T12Z_MSC_GDPS_AirTemp_IsbL-1000_LatLon0.15_PT009H.grib2 2026-04-30 15:51 1.1M
20260430T12Z_MSC_GDPS_AirTemp_IsbL-1015_LatLon0.15_PT009H.grib2 2026-04-30 15:51 1.1M
20260430T12Z_MSC_GDPS_Albedo_Sfc_LatLon0.15_PT009H.grib2 2026-04-30 15:51 242K
20260430T12Z_MSC_GDPS_CAPE_Sfc_LatLon0.15_PT009H.grib2 2026-04-30 15:51 3.9M
20260430T12Z_MSC_GDPS_CIN_Sfc_LatLon0.15_PT009H.grib2 2026-04-30 15:51 2.9M
20260430T12Z_MSC_GDPS_CloudWater_EAtm_LatLon0.15_PT009H.grib2 2026-04-30 15:51 532K
20260430T12Z_MSC_GDPS_ConvectivePrecip-Accum_Sfc_LatLon0.15_PT009H.grib2 2026-04-30 15:51 1.8M
20260430T12Z_MSC_GDPS_DewPointDepression_AGL-2m_LatLon0.15_PT009H.grib2 2026-04-30 15:51 767K
20260430T12Z_MSC_GDPS_DewPointDepression_IsbL-0010_LatLon0.15_PT009H.grib2 2026-04-30 15:51 57K
20260430T12Z_MSC_GDPS_DewPointDepression_IsbL-0020_LatLon0.15_PT009H.grib2 2026-04-30 15:51 65K
20260430T12Z_MSC_GDPS_DewPointDepression_IsbL-0030_LatLon0.15_PT009H.grib2 2026-04-30 15:51 72K
20260430T12Z_MSC_GDPS_DewPointDepression_IsbL-0050_LatLon0.15_PT009H.grib2 2026-04-30 15:51 373K
20260430T12Z_MSC_GDPS_DewPointDepression_IsbL-0100_LatLon0.15_PT009H.grib2 2026-04-30 15:51 421K
20260430T12Z_MSC_GDPS_DewPointDepression_IsbL-0150_LatLon0.15_PT009H.grib2 2026-04-30 15:51 463K
20260430T12Z_MSC_GDPS_DewPointDepression_IsbL-0175_LatLon0.15_PT009H.grib2 2026-04-30 15:51 563K
20260430T12Z_MSC_GDPS_DewPointDepression_IsbL-0200_LatLon0.15_PT009H.grib2 2026-04-30 15:51 690K
20260430T12Z_MSC_GDPS_DewPointDepression_IsbL-0225_LatLon0.15_PT009H.grib2 2026-04-30 15:51 805K
20260430T12Z_MSC_GDPS_DewPointDepression_IsbL-0250_LatLon0.15_PT009H.grib2 2026-04-30 15:51 889K
20260430T12Z_MSC_GDPS_DewPointDepression_IsbL-0275_LatLon0.15_PT009H.grib2 2026-04-30 15:51 894K
20260430T12Z_MSC_GDPS_DewPointDepression_IsbL-0300_LatLon0.15_PT009H.grib2 2026-04-30 15:51 936K
20260430T12Z_MSC_GDPS_DewPointDepression_IsbL-0350_LatLon0.15_PT009H.grib2 2026-04-30 15:51 958K
20260430T12Z_MSC_GDPS_DewPointDepression_IsbL-0400_LatLon0.15_PT009H.grib2 2026-04-30 15:51 1.0M
20260430T12Z_MSC_GDPS_DewPointDepression_IsbL-0450_LatLon0.15_PT009H.grib2 2026-04-30 15:51 1.0M
20260430T12Z_MSC_GDPS_DewPointDepression_IsbL-0500_LatLon0.15_PT009H.grib2 2026-04-30 15:51 1.0M
20260430T12Z_MSC_GDPS_DewPointDepression_IsbL-0550_LatLon0.15_PT009H.grib2 2026-04-30 15:51 1.0M
20260430T12Z_MSC_GDPS_DewPointDepression_IsbL-0600_LatLon0.15_PT009H.grib2 2026-04-30 15:51 1.0M
20260430T12Z_MSC_GDPS_DewPointDepression_IsbL-0650_LatLon0.15_PT009H.grib2 2026-04-30 15:51 1.1M
20260430T12Z_MSC_GDPS_DewPointDepression_IsbL-0700_LatLon0.15_PT009H.grib2 2026-04-30 15:51 1.1M
20260430T12Z_MSC_GDPS_DewPointDepression_IsbL-0750_LatLon0.15_PT009H.grib2 2026-04-30 15:51 1.1M
20260430T12Z_MSC_GDPS_DewPointDepression_IsbL-0800_LatLon0.15_PT009H.grib2 2026-04-30 15:51 1.1M
20260430T12Z_MSC_GDPS_DewPointDepression_IsbL-0850_LatLon0.15_PT009H.grib2 2026-04-30 15:51 1.1M
20260430T12Z_MSC_GDPS_DewPointDepression_IsbL-0875_LatLon0.15_PT009H.grib2 2026-04-30 15:51 1.1M
20260430T12Z_MSC_GDPS_DewPointDepression_IsbL-0900_LatLon0.15_PT009H.grib2 2026-04-30 15:51 1.1M
20260430T12Z_MSC_GDPS_DewPointDepression_IsbL-0925_LatLon0.15_PT009H.grib2 2026-04-30 15:51 1.0M
20260430T12Z_MSC_GDPS_DewPointDepression_IsbL-0950_LatLon0.15_PT009H.grib2 2026-04-30 15:51 1.0M
20260430T12Z_MSC_GDPS_DewPointDepression_IsbL-0970_LatLon0.15_PT009H.grib2 2026-04-30 15:51 1.0M
20260430T12Z_MSC_GDPS_DewPointDepression_IsbL-0985_LatLon0.15_PT009H.grib2 2026-04-30 15:51 1.0M
20260430T12Z_MSC_GDPS_DewPointDepression_IsbL-1000_LatLon0.15_PT009H.grib2 2026-04-30 15:51 1.0M
20260430T12Z_MSC_GDPS_DewPointDepression_IsbL-1015_LatLon0.15_PT009H.grib2 2026-04-30 15:51 923K
20260430T12Z_MSC_GDPS_DewPoint_AGL-2m_LatLon0.15_PT009H.grib2 2026-04-30 15:51 608K
20260430T12Z_MSC_GDPS_DownwardLongwaveRadiationFlux-Accum_Sfc_LatLon0.15_PT009H.grib2 2026-04-30 15:51 947K
20260430T12Z_MSC_GDPS_DownwardShortwaveRadiationFlux-Accum_NTAtm_LatLon0.15_PT009H.grib2 2026-04-30 15:51 306K
20260430T12Z_MSC_GDPS_DownwardShortwaveRadiationFlux-Accum_Sfc_LatLon0.15_PT009H.grib2 2026-04-30 15:51 759K
20260430T12Z_MSC_GDPS_FreezingRain-Accum1h_Sfc_LatLon0.15_PT009H.grib2 2026-04-30 15:51 48K
20260430T12Z_MSC_GDPS_FreezingRain-Accum3h_Sfc_LatLon0.15_PT009H.grib2 2026-04-30 15:51 49K
20260430T12Z_MSC_GDPS_FreezingRain-Accum_Sfc_LatLon0.15_PT009H.grib2 2026-04-30 15:51 118K
20260430T12Z_MSC_GDPS_GeopotentialHeight_IsbL-0001_LatLon0.15_PT009H.grib2 2026-04-30 15:51 440K
20260430T12Z_MSC_GDPS_GeopotentialHeight_IsbL-0005_LatLon0.15_PT009H.grib2 2026-04-30 15:51 498K
20260430T12Z_MSC_GDPS_GeopotentialHeight_IsbL-0010_LatLon0.15_PT009H.grib2 2026-04-30 15:51 482K
20260430T12Z_MSC_GDPS_GeopotentialHeight_IsbL-0020_LatLon0.15_PT009H.grib2 2026-04-30 15:51 417K
20260430T12Z_MSC_GDPS_GeopotentialHeight_IsbL-0030_LatLon0.15_PT009H.grib2 2026-04-30 15:51 576K
20260430T12Z_MSC_GDPS_GeopotentialHeight_IsbL-0050_LatLon0.15_PT009H.grib2 2026-04-30 15:51 579K
20260430T12Z_MSC_GDPS_GeopotentialHeight_IsbL-0100_LatLon0.15_PT009H.grib2 2026-04-30 15:51 613K
20260430T12Z_MSC_GDPS_GeopotentialHeight_IsbL-0150_LatLon0.15_PT009H.grib2 2026-04-30 15:51 633K
20260430T12Z_MSC_GDPS_GeopotentialHeight_IsbL-0175_LatLon0.15_PT009H.grib2 2026-04-30 15:51 636K
20260430T12Z_MSC_GDPS_GeopotentialHeight_IsbL-0200_LatLon0.15_PT009H.grib2 2026-04-30 15:51 641K
20260430T12Z_MSC_GDPS_GeopotentialHeight_IsbL-0225_LatLon0.15_PT009H.grib2 2026-04-30 15:51 644K
20260430T12Z_MSC_GDPS_GeopotentialHeight_IsbL-0250_LatLon0.15_PT009H.grib2 2026-04-30 15:51 644K
20260430T12Z_MSC_GDPS_GeopotentialHeight_IsbL-0275_LatLon0.15_PT009H.grib2 2026-04-30 15:51 645K
20260430T12Z_MSC_GDPS_GeopotentialHeight_IsbL-0300_LatLon0.15_PT009H.grib2 2026-04-30 15:51 643K
20260430T12Z_MSC_GDPS_GeopotentialHeight_IsbL-0350_LatLon0.15_PT009H.grib2 2026-04-30 15:51 632K
20260430T12Z_MSC_GDPS_GeopotentialHeight_IsbL-0400_LatLon0.15_PT009H.grib2 2026-04-30 15:51 625K
20260430T12Z_MSC_GDPS_GeopotentialHeight_IsbL-0450_LatLon0.15_PT009H.grib2 2026-04-30 15:51 616K
20260430T12Z_MSC_GDPS_GeopotentialHeight_IsbL-0500_LatLon0.15_PT009H.grib2 2026-04-30 15:51 535K
20260430T12Z_MSC_GDPS_GeopotentialHeight_IsbL-0550_LatLon0.15_PT009H.grib2 2026-04-30 15:51 530K
20260430T12Z_MSC_GDPS_GeopotentialHeight_IsbL-0600_LatLon0.15_PT009H.grib2 2026-04-30 15:51 693K
20260430T12Z_MSC_GDPS_GeopotentialHeight_IsbL-0650_LatLon0.15_PT009H.grib2 2026-04-30 15:51 689K
20260430T12Z_MSC_GDPS_GeopotentialHeight_IsbL-0700_LatLon0.15_PT009H.grib2 2026-04-30 15:51 690K
20260430T12Z_MSC_GDPS_GeopotentialHeight_IsbL-0750_LatLon0.15_PT009H.grib2 2026-04-30 15:51 690K
20260430T12Z_MSC_GDPS_GeopotentialHeight_IsbL-0800_LatLon0.15_PT009H.grib2 2026-04-30 15:51 703K
20260430T12Z_MSC_GDPS_GeopotentialHeight_IsbL-0850_LatLon0.15_PT009H.grib2 2026-04-30 15:51 712K
20260430T12Z_MSC_GDPS_GeopotentialHeight_IsbL-0875_LatLon0.15_PT009H.grib2 2026-04-30 15:51 712K
20260430T12Z_MSC_GDPS_GeopotentialHeight_IsbL-0900_LatLon0.15_PT009H.grib2 2026-04-30 15:51 722K
20260430T12Z_MSC_GDPS_GeopotentialHeight_IsbL-0925_LatLon0.15_PT009H.grib2 2026-04-30 15:51 730K
20260430T12Z_MSC_GDPS_GeopotentialHeight_IsbL-0950_LatLon0.15_PT009H.grib2 2026-04-30 15:51 738K
20260430T12Z_MSC_GDPS_GeopotentialHeight_IsbL-0970_LatLon0.15_PT009H.grib2 2026-04-30 15:51 749K
20260430T12Z_MSC_GDPS_GeopotentialHeight_IsbL-0985_LatLon0.15_PT009H.grib2 2026-04-30 15:51 765K
20260430T12Z_MSC_GDPS_GeopotentialHeight_IsbL-1000_LatLon0.15_PT009H.grib2 2026-04-30 15:51 787K
20260430T12Z_MSC_GDPS_GeopotentialHeight_IsbL-1015_LatLon0.15_PT009H.grib2 2026-04-30 15:51 810K
20260430T12Z_MSC_GDPS_Humidex_Sfc_LatLon0.15_PT009H.grib2 2026-04-30 15:51 5.3M
20260430T12Z_MSC_GDPS_IcePellets-Accum1h_Sfc_LatLon0.15_PT009H.grib2 2026-04-30 15:51 13K
20260430T12Z_MSC_GDPS_IcePellets-Accum3h_Sfc_LatLon0.15_PT009H.grib2 2026-04-30 15:51 16K
20260430T12Z_MSC_GDPS_IcePellets-Accum_Sfc_LatLon0.15_PT009H.grib2 2026-04-30 15:51 21K
20260430T12Z_MSC_GDPS_KIndex_Sfc_LatLon0.15_PT009H.grib2 2026-04-30 15:51 6.4M
20260430T12Z_MSC_GDPS_LatentHeatNetFlux_Sfc_LatLon0.15_PT009H.grib2 2026-04-30 15:51 656K
20260430T12Z_MSC_GDPS_LiftedIndex-MU-VT_IsbL-0500_LatLon0.15_PT009H.grib2 2026-04-30 15:51 5.3M
20260430T12Z_MSC_GDPS_NetLongwaveRadiationFlux-Accum_Sfc_LatLon0.15_PT009H.grib2 2026-04-30 15:51 1.2M
20260430T12Z_MSC_GDPS_NetShortwaveRadiationFlux-Accum_Sfc_LatLon0.15_PT009H.grib2 2026-04-30 15:51 722K
20260430T12Z_MSC_GDPS_O3MixingRatio_Sfc_LatLon0.15_PT009H.grib2 2026-04-30 16:43 2.4M
20260430T12Z_MSC_GDPS_O3_EAtm_LatLon0.15_PT009H.grib2 2026-04-30 16:43 2.5M
20260430T12Z_MSC_GDPS_PlanetaryBoundaryLayerHeight_Sfc_LatLon0.15_PT009H.grib2 2026-04-30 15:51 2.4M
20260430T12Z_MSC_GDPS_Precip-Accum1h_Sfc_LatLon0.15_PT009H.grib2 2026-04-30 15:51 3.1M
20260430T12Z_MSC_GDPS_Precip-Accum3h_Sfc_LatLon0.15_PT009H.grib2 2026-04-30 15:51 3.4M
20260430T12Z_MSC_GDPS_Precip-Accum_Sfc_LatLon0.15_PT009H.grib2 2026-04-30 15:51 3.9M
20260430T12Z_MSC_GDPS_PrecipRate_Sfc_LatLon0.15_PT009H.grib2 2026-04-30 15:51 2.9M
20260430T12Z_MSC_GDPS_PrecipType-Instant_Sfc_LatLon0.15_PT009H.grib2 2026-04-30 15:51 1.5M
20260430T12Z_MSC_GDPS_Pressure_MSL_LatLon0.15_PT009H.grib2 2026-04-30 15:51 724K
20260430T12Z_MSC_GDPS_Pressure_PVU-1.5_LatLon0.15_PT009H.grib2 2026-04-30 15:51 5.8M
20260430T12Z_MSC_GDPS_Pressure_PVU-1_LatLon0.15_PT009H.grib2 2026-04-30 15:51 6.0M
20260430T12Z_MSC_GDPS_Pressure_PVU-2_LatLon0.15_PT009H.grib2 2026-04-30 15:51 5.6M
20260430T12Z_MSC_GDPS_Pressure_Sfc_LatLon0.15_PT009H.grib2 2026-04-30 15:51 1.1M
20260430T12Z_MSC_GDPS_RadiativeTemp_Sfc_LatLon0.15_PT009H.grib2 2026-04-30 15:51 489K
20260430T12Z_MSC_GDPS_Rain-Accum1h_Sfc_LatLon0.15_PT009H.grib2 2026-04-30 15:51 1.6M
20260430T12Z_MSC_GDPS_Rain-Accum3h_Sfc_LatLon0.15_PT009H.grib2 2026-04-30 15:51 1.8M
20260430T12Z_MSC_GDPS_Rain-Accum_Sfc_LatLon0.15_PT009H.grib2 2026-04-30 15:51 2.8M
20260430T12Z_MSC_GDPS_RelativeHumidity_AGL-2m_LatLon0.15_PT009H.grib2 2026-04-30 15:51 1.0M
20260430T12Z_MSC_GDPS_RelativeHumidity_IsbL-0010_LatLon0.15_PT009H.grib2 2026-04-30 15:51 204K
20260430T12Z_MSC_GDPS_RelativeHumidity_IsbL-0020_LatLon0.15_PT009H.grib2 2026-04-30 15:51 173K
20260430T12Z_MSC_GDPS_RelativeHumidity_IsbL-0030_LatLon0.15_PT009H.grib2 2026-04-30 15:51 273K
20260430T12Z_MSC_GDPS_RelativeHumidity_IsbL-0050_LatLon0.15_PT009H.grib2 2026-04-30 15:51 420K
20260430T12Z_MSC_GDPS_RelativeHumidity_IsbL-0100_LatLon0.15_PT009H.grib2 2026-04-30 15:51 520K
20260430T12Z_MSC_GDPS_RelativeHumidity_IsbL-0150_LatLon0.15_PT009H.grib2 2026-04-30 15:51 659K
20260430T12Z_MSC_GDPS_RelativeHumidity_IsbL-0175_LatLon0.15_PT009H.grib2 2026-04-30 15:51 774K
20260430T12Z_MSC_GDPS_RelativeHumidity_IsbL-0200_LatLon0.15_PT009H.grib2 2026-04-30 15:51 695K
20260430T12Z_MSC_GDPS_RelativeHumidity_IsbL-0225_LatLon0.15_PT009H.grib2 2026-04-30 15:51 791K
20260430T12Z_MSC_GDPS_RelativeHumidity_IsbL-0250_LatLon0.15_PT009H.grib2 2026-04-30 15:51 872K
20260430T12Z_MSC_GDPS_RelativeHumidity_IsbL-0275_LatLon0.15_PT009H.grib2 2026-04-30 15:51 889K
20260430T12Z_MSC_GDPS_RelativeHumidity_IsbL-0300_LatLon0.15_PT009H.grib2 2026-04-30 15:51 933K
20260430T12Z_MSC_GDPS_RelativeHumidity_IsbL-0350_LatLon0.15_PT009H.grib2 2026-04-30 15:51 953K
20260430T12Z_MSC_GDPS_RelativeHumidity_IsbL-0400_LatLon0.15_PT009H.grib2 2026-04-30 15:51 1.0M
20260430T12Z_MSC_GDPS_RelativeHumidity_IsbL-0450_LatLon0.15_PT009H.grib2 2026-04-30 15:51 1.0M
20260430T12Z_MSC_GDPS_RelativeHumidity_IsbL-0500_LatLon0.15_PT009H.grib2 2026-04-30 15:51 1.0M
20260430T12Z_MSC_GDPS_RelativeHumidity_IsbL-0550_LatLon0.15_PT009H.grib2 2026-04-30 15:51 1.1M
20260430T12Z_MSC_GDPS_RelativeHumidity_IsbL-0600_LatLon0.15_PT009H.grib2 2026-04-30 15:51 1.1M
20260430T12Z_MSC_GDPS_RelativeHumidity_IsbL-0650_LatLon0.15_PT009H.grib2 2026-04-30 15:51 1.1M
20260430T12Z_MSC_GDPS_RelativeHumidity_IsbL-0700_LatLon0.15_PT009H.grib2 2026-04-30 15:51 1.1M
20260430T12Z_MSC_GDPS_RelativeHumidity_IsbL-0750_LatLon0.15_PT009H.grib2 2026-04-30 15:51 1.2M
20260430T12Z_MSC_GDPS_RelativeHumidity_IsbL-0800_LatLon0.15_PT009H.grib2 2026-04-30 15:51 1.2M
20260430T12Z_MSC_GDPS_RelativeHumidity_IsbL-0850_LatLon0.15_PT009H.grib2 2026-04-30 15:51 1.3M
20260430T12Z_MSC_GDPS_RelativeHumidity_IsbL-0875_LatLon0.15_PT009H.grib2 2026-04-30 15:51 1.3M
20260430T12Z_MSC_GDPS_RelativeHumidity_IsbL-0900_LatLon0.15_PT009H.grib2 2026-04-30 15:51 1.2M
20260430T12Z_MSC_GDPS_RelativeHumidity_IsbL-0925_LatLon0.15_PT009H.grib2 2026-04-30 15:51 1.2M
20260430T12Z_MSC_GDPS_RelativeHumidity_IsbL-0950_LatLon0.15_PT009H.grib2 2026-04-30 15:51 1.2M
20260430T12Z_MSC_GDPS_RelativeHumidity_IsbL-0970_LatLon0.15_PT009H.grib2 2026-04-30 15:51 1.2M
20260430T12Z_MSC_GDPS_RelativeHumidity_IsbL-0985_LatLon0.15_PT009H.grib2 2026-04-30 15:51 1.2M
20260430T12Z_MSC_GDPS_RelativeHumidity_IsbL-1000_LatLon0.15_PT009H.grib2 2026-04-30 15:51 1.1M
20260430T12Z_MSC_GDPS_RelativeHumidity_IsbL-1015_LatLon0.15_PT009H.grib2 2026-04-30 15:51 1.1M
20260430T12Z_MSC_GDPS_RelativeVorticity_IsbL-0200_LatLon0.15_PT009H.grib2 2026-04-30 15:51 1.5M
20260430T12Z_MSC_GDPS_RelativeVorticity_IsbL-0250_LatLon0.15_PT009H.grib2 2026-04-30 15:51 1.3M
20260430T12Z_MSC_GDPS_RelativeVorticity_IsbL-0500_LatLon0.15_PT009H.grib2 2026-04-30 15:51 1.5M
20260430T12Z_MSC_GDPS_RelativeVorticity_IsbL-0700_LatLon0.15_PT009H.grib2 2026-04-30 15:51 1.3M
20260430T12Z_MSC_GDPS_RelativeVorticity_IsbL-0850_LatLon0.15_PT009H.grib2 2026-04-30 15:51 1.6M
20260430T12Z_MSC_GDPS_Runoff-Accum_Sfc_LatLon0.15_PT009H.grib2 2026-04-30 15:51 73K
20260430T12Z_MSC_GDPS_SensibleHeatNetFlux_Sfc_LatLon0.15_PT009H.grib2 2026-04-30 15:51 444K
20260430T12Z_MSC_GDPS_ShowalterIndex_IsbL-0500_LatLon0.15_PT009H.grib2 2026-04-30 15:51 6.2M
20260430T12Z_MSC_GDPS_Snow-Accum1h_Sfc_LatLon0.15_PT009H.grib2 2026-04-30 15:51 1.1M
20260430T12Z_MSC_GDPS_Snow-Accum3h_Sfc_LatLon0.15_PT009H.grib2 2026-04-30 15:51 1.1M
20260430T12Z_MSC_GDPS_Snow-Accum_Sfc_LatLon0.15_PT009H.grib2 2026-04-30 15:51 1.6M
20260430T12Z_MSC_GDPS_SnowDensity_Sfc_LatLon0.15_PT009H.grib2 2026-04-30 15:51 253K
20260430T12Z_MSC_GDPS_SnowDepth_Sfc_LatLon0.15_PT009H.grib2 2026-04-30 15:51 1.7M
20260430T12Z_MSC_GDPS_SoilTemp_DBS-0to10cm_LatLon0.15_PT009H.grib2 2026-04-30 15:51 497K
20260430T12Z_MSC_GDPS_SoilTemp_Sfc_LatLon0.15_PT009H.grib2 2026-04-30 15:51 577K
20260430T12Z_MSC_GDPS_SoilVolumetricIceContent_Sfc_LatLon0.15_PT009H.grib2 2026-04-30 15:51 206K
20260430T12Z_MSC_GDPS_SoilVolumetricWaterContent_DBS-0to10cm_LatLon0.15_PT009H.grib2 2026-04-30 15:51 584K
20260430T12Z_MSC_GDPS_SoilVolumetricWaterContent_DBS-0to1cm_LatLon0.15_PT009H.grib2 2026-04-30 15:51 646K
20260430T12Z_MSC_GDPS_SpecificHumidity_AGL-120m_LatLon0.15_PT009H.grib2 2026-04-30 15:51 1.1M
20260430T12Z_MSC_GDPS_SpecificHumidity_AGL-2m_LatLon0.15_PT009H.grib2 2026-04-30 15:51 1.2M
20260430T12Z_MSC_GDPS_SpecificHumidity_AGL-40m_LatLon0.15_PT009H.grib2 2026-04-30 15:51 1.1M
20260430T12Z_MSC_GDPS_SpecificHumidity_AGL-80m_LatLon0.15_PT009H.grib2 2026-04-30 15:51 1.1M
20260430T12Z_MSC_GDPS_SpecificHumidity_IsbL-0001_LatLon0.15_PT009H.grib2 2026-04-30 15:51 1.0M
20260430T12Z_MSC_GDPS_SpecificHumidity_IsbL-0005_LatLon0.15_PT009H.grib2 2026-04-30 15:51 1.3M
20260430T12Z_MSC_GDPS_SpecificHumidity_IsbL-0010_LatLon0.15_PT009H.grib2 2026-04-30 15:51 1.4M
20260430T12Z_MSC_GDPS_SpecificHumidity_IsbL-0020_LatLon0.15_PT009H.grib2 2026-04-30 15:51 1.4M
20260430T12Z_MSC_GDPS_SpecificHumidity_IsbL-0030_LatLon0.15_PT009H.grib2 2026-04-30 15:51 1.4M
20260430T12Z_MSC_GDPS_SpecificHumidity_IsbL-0050_LatLon0.15_PT009H.grib2 2026-04-30 15:51 1.4M
20260430T12Z_MSC_GDPS_SpecificHumidity_IsbL-0100_LatLon0.15_PT009H.grib2 2026-04-30 15:51 1.4M
20260430T12Z_MSC_GDPS_SpecificHumidity_IsbL-0150_LatLon0.15_PT009H.grib2 2026-04-30 15:51 1.2M
20260430T12Z_MSC_GDPS_SpecificHumidity_IsbL-0175_LatLon0.15_PT009H.grib2 2026-04-30 15:51 1.3M
20260430T12Z_MSC_GDPS_SpecificHumidity_IsbL-0200_LatLon0.15_PT009H.grib2 2026-04-30 15:51 1.3M
20260430T12Z_MSC_GDPS_SpecificHumidity_IsbL-0225_LatLon0.15_PT009H.grib2 2026-04-30 15:51 1.3M
20260430T12Z_MSC_GDPS_SpecificHumidity_IsbL-0250_LatLon0.15_PT009H.grib2 2026-04-30 15:51 1.4M
20260430T12Z_MSC_GDPS_SpecificHumidity_IsbL-0275_LatLon0.15_PT009H.grib2 2026-04-30 15:51 1.3M
20260430T12Z_MSC_GDPS_SpecificHumidity_IsbL-0300_LatLon0.15_PT009H.grib2 2026-04-30 15:51 1.2M
20260430T12Z_MSC_GDPS_SpecificHumidity_IsbL-0350_LatLon0.15_PT009H.grib2 2026-04-30 15:51 1.2M
20260430T12Z_MSC_GDPS_SpecificHumidity_IsbL-0400_LatLon0.15_PT009H.grib2 2026-04-30 15:51 1.5M
20260430T12Z_MSC_GDPS_SpecificHumidity_IsbL-0450_LatLon0.15_PT009H.grib2 2026-04-30 15:51 1.6M
20260430T12Z_MSC_GDPS_SpecificHumidity_IsbL-0500_LatLon0.15_PT009H.grib2 2026-04-30 15:51 1.4M
20260430T12Z_MSC_GDPS_SpecificHumidity_IsbL-0550_LatLon0.15_PT009H.grib2 2026-04-30 15:51 1.6M
20260430T12Z_MSC_GDPS_SpecificHumidity_IsbL-0600_LatLon0.15_PT009H.grib2 2026-04-30 15:51 1.7M
20260430T12Z_MSC_GDPS_SpecificHumidity_IsbL-0650_LatLon0.15_PT009H.grib2 2026-04-30 15:51 1.5M
20260430T12Z_MSC_GDPS_SpecificHumidity_IsbL-0700_LatLon0.15_PT009H.grib2 2026-04-30 15:51 1.6M
20260430T12Z_MSC_GDPS_SpecificHumidity_IsbL-0750_LatLon0.15_PT009H.grib2 2026-04-30 15:51 1.7M
20260430T12Z_MSC_GDPS_SpecificHumidity_IsbL-0800_LatLon0.15_PT009H.grib2 2026-04-30 15:51 1.8M
20260430T12Z_MSC_GDPS_SpecificHumidity_IsbL-0850_LatLon0.15_PT009H.grib2 2026-04-30 15:51 1.9M
20260430T12Z_MSC_GDPS_SpecificHumidity_IsbL-0875_LatLon0.15_PT009H.grib2 2026-04-30 15:51 1.9M
20260430T12Z_MSC_GDPS_SpecificHumidity_IsbL-0900_LatLon0.15_PT009H.grib2 2026-04-30 15:51 1.9M
20260430T12Z_MSC_GDPS_SpecificHumidity_IsbL-0925_LatLon0.15_PT009H.grib2 2026-04-30 15:51 1.6M
20260430T12Z_MSC_GDPS_SpecificHumidity_IsbL-0950_LatLon0.15_PT009H.grib2 2026-04-30 15:51 1.5M
20260430T12Z_MSC_GDPS_SpecificHumidity_IsbL-0970_LatLon0.15_PT009H.grib2 2026-04-30 15:51 1.5M
20260430T12Z_MSC_GDPS_SpecificHumidity_IsbL-0985_LatLon0.15_PT009H.grib2 2026-04-30 15:51 1.5M
20260430T12Z_MSC_GDPS_SpecificHumidity_IsbL-1000_LatLon0.15_PT009H.grib2 2026-04-30 15:51 1.5M
20260430T12Z_MSC_GDPS_SpecificHumidity_IsbL-1015_LatLon0.15_PT009H.grib2 2026-04-30 15:51 1.4M
20260430T12Z_MSC_GDPS_SpecificHumidity_Sfc_LatLon0.15_PT009H.grib2 2026-04-30 15:51 659K
20260430T12Z_MSC_GDPS_Thickness_IsbL-0850to0700_LatLon0.15_PT009H.grib2 2026-04-30 15:51 467K
20260430T12Z_MSC_GDPS_Thickness_IsbL-1000to0500_LatLon0.15_PT009H.grib2 2026-04-30 15:51 367K
20260430T12Z_MSC_GDPS_Thickness_IsbL-1000to0850_LatLon0.15_PT009H.grib2 2026-04-30 15:51 486K
20260430T12Z_MSC_GDPS_TotalCloudCover_Sfc_LatLon0.15_PT009H.grib2 2026-04-30 15:51 833K
20260430T12Z_MSC_GDPS_TotalTotalsIndex_Sfc_LatLon0.15_PT009H.grib2 2026-04-30 15:51 6.2M
20260430T12Z_MSC_GDPS_UVIndex-ClearSky_Sfc_LatLon0.15_PT009H.grib2 2026-04-30 16:43 1.0M
20260430T12Z_MSC_GDPS_UVIndex_Sfc_LatLon0.15_PT009H.grib2 2026-04-30 16:43 1.5M
20260430T12Z_MSC_GDPS_UpwardLongwaveRadiationFlux_NTAtm_LatLon0.15_PT009H.grib2 2026-04-30 15:51 840K
20260430T12Z_MSC_GDPS_VerticalVelocity_IsbL-0200_LatLon0.15_PT009H.grib2 2026-04-30 15:51 1.2M
20260430T12Z_MSC_GDPS_VerticalVelocity_IsbL-0250_LatLon0.15_PT009H.grib2 2026-04-30 15:51 1.0M
20260430T12Z_MSC_GDPS_VerticalVelocity_IsbL-0500_LatLon0.15_PT009H.grib2 2026-04-30 15:51 1.3M
20260430T12Z_MSC_GDPS_VerticalVelocity_IsbL-0600_LatLon0.15_PT009H.grib2 2026-04-30 15:51 1.3M
20260430T12Z_MSC_GDPS_VerticalVelocity_IsbL-0700_LatLon0.15_PT009H.grib2 2026-04-30 15:51 1.4M
20260430T12Z_MSC_GDPS_VerticalVelocity_IsbL-0850_LatLon0.15_PT009H.grib2 2026-04-30 15:51 1.6M
20260430T12Z_MSC_GDPS_WindChill_Sfc_LatLon0.15_PT009H.grib2 2026-04-30 15:51 5.3M
20260430T12Z_MSC_GDPS_WindDir_AGL-10m_LatLon0.15_PT009H.grib2 2026-04-30 15:51 1.3M
20260430T12Z_MSC_GDPS_WindDir_AGL-120m_LatLon0.15_PT009H.grib2 2026-04-30 15:51 1.4M
20260430T12Z_MSC_GDPS_WindDir_AGL-40m_LatLon0.15_PT009H.grib2 2026-04-30 15:51 1.4M
20260430T12Z_MSC_GDPS_WindDir_AGL-80m_LatLon0.15_PT009H.grib2 2026-04-30 15:51 1.4M
20260430T12Z_MSC_GDPS_WindDir_IsbL-0001_LatLon0.15_PT009H.grib2 2026-04-30 15:51 675K
20260430T12Z_MSC_GDPS_WindDir_IsbL-0005_LatLon0.15_PT009H.grib2 2026-04-30 15:51 806K
20260430T12Z_MSC_GDPS_WindDir_IsbL-0010_LatLon0.15_PT009H.grib2 2026-04-30 15:51 853K
20260430T12Z_MSC_GDPS_WindDir_IsbL-0020_LatLon0.15_PT009H.grib2 2026-04-30 15:51 951K
20260430T12Z_MSC_GDPS_WindDir_IsbL-0030_LatLon0.15_PT009H.grib2 2026-04-30 15:51 927K
20260430T12Z_MSC_GDPS_WindDir_IsbL-0050_LatLon0.15_PT009H.grib2 2026-04-30 15:51 942K
20260430T12Z_MSC_GDPS_WindDir_IsbL-0100_LatLon0.15_PT009H.grib2 2026-04-30 15:51 1.0M
20260430T12Z_MSC_GDPS_WindDir_IsbL-0150_LatLon0.15_PT009H.grib2 2026-04-30 15:51 1.0M
20260430T12Z_MSC_GDPS_WindDir_IsbL-0175_LatLon0.15_PT009H.grib2 2026-04-30 15:51 1.1M
20260430T12Z_MSC_GDPS_WindDir_IsbL-0200_LatLon0.15_PT009H.grib2 2026-04-30 15:51 1.1M
20260430T12Z_MSC_GDPS_WindDir_IsbL-0225_LatLon0.15_PT009H.grib2 2026-04-30 15:51 1.1M
20260430T12Z_MSC_GDPS_WindDir_IsbL-0250_LatLon0.15_PT009H.grib2 2026-04-30 15:51 1.1M
20260430T12Z_MSC_GDPS_WindDir_IsbL-0275_LatLon0.15_PT009H.grib2 2026-04-30 15:51 1.2M
20260430T12Z_MSC_GDPS_WindDir_IsbL-0300_LatLon0.15_PT009H.grib2 2026-04-30 15:51 1.2M
20260430T12Z_MSC_GDPS_WindDir_IsbL-0350_LatLon0.15_PT009H.grib2 2026-04-30 15:51 1.2M
20260430T12Z_MSC_GDPS_WindDir_IsbL-0400_LatLon0.15_PT009H.grib2 2026-04-30 15:51 1.3M
20260430T12Z_MSC_GDPS_WindDir_IsbL-0450_LatLon0.15_PT009H.grib2 2026-04-30 15:51 1.3M
20260430T12Z_MSC_GDPS_WindDir_IsbL-0500_LatLon0.15_PT009H.grib2 2026-04-30 15:51 1.3M
20260430T12Z_MSC_GDPS_WindDir_IsbL-0550_LatLon0.15_PT009H.grib2 2026-04-30 15:51 1.4M
20260430T12Z_MSC_GDPS_WindDir_IsbL-0600_LatLon0.15_PT009H.grib2 2026-04-30 15:51 1.5M
20260430T12Z_MSC_GDPS_WindDir_IsbL-0650_LatLon0.15_PT009H.grib2 2026-04-30 15:51 1.5M
20260430T12Z_MSC_GDPS_WindDir_IsbL-0700_LatLon0.15_PT009H.grib2 2026-04-30 15:51 1.6M
20260430T12Z_MSC_GDPS_WindDir_IsbL-0750_LatLon0.15_PT009H.grib2 2026-04-30 15:51 1.7M
20260430T12Z_MSC_GDPS_WindDir_IsbL-0800_LatLon0.15_PT009H.grib2 2026-04-30 15:51 1.8M
20260430T12Z_MSC_GDPS_WindDir_IsbL-0850_LatLon0.15_PT009H.grib2 2026-04-30 15:51 1.9M
20260430T12Z_MSC_GDPS_WindDir_IsbL-0875_LatLon0.15_PT009H.grib2 2026-04-30 15:51 2.0M
20260430T12Z_MSC_GDPS_WindDir_IsbL-0900_LatLon0.15_PT009H.grib2 2026-04-30 15:51 2.0M
20260430T12Z_MSC_GDPS_WindDir_IsbL-0925_LatLon0.15_PT009H.grib2 2026-04-30 15:51 2.0M
20260430T12Z_MSC_GDPS_WindDir_IsbL-0950_LatLon0.15_PT009H.grib2 2026-04-30 15:51 2.0M
20260430T12Z_MSC_GDPS_WindDir_IsbL-0970_LatLon0.15_PT009H.grib2 2026-04-30 15:51 2.0M
20260430T12Z_MSC_GDPS_WindDir_IsbL-0985_LatLon0.15_PT009H.grib2 2026-04-30 15:51 2.0M
20260430T12Z_MSC_GDPS_WindDir_IsbL-1000_LatLon0.15_PT009H.grib2 2026-04-30 15:51 2.1M
20260430T12Z_MSC_GDPS_WindDir_IsbL-1015_LatLon0.15_PT009H.grib2 2026-04-30 15:51 2.1M
20260430T12Z_MSC_GDPS_WindGust-Max_AGL-10m_LatLon0.15_PT009H.grib2 2026-04-30 15:51 2.2M
20260430T12Z_MSC_GDPS_WindGust-Min_AGL-10m_LatLon0.15_PT009H.grib2 2026-04-30 15:51 2.2M
20260430T12Z_MSC_GDPS_WindGust_AGL-10m_LatLon0.15_PT009H.grib2 2026-04-30 15:51 2.2M
20260430T12Z_MSC_GDPS_WindSpeed_AGL-10m_LatLon0.15_PT009H.grib2 2026-04-30 15:51 1.1M
20260430T12Z_MSC_GDPS_WindSpeed_AGL-120m_LatLon0.15_PT009H.grib2 2026-04-30 15:51 1.2M
20260430T12Z_MSC_GDPS_WindSpeed_AGL-40m_LatLon0.15_PT009H.grib2 2026-04-30 15:51 1.2M
20260430T12Z_MSC_GDPS_WindSpeed_AGL-80m_LatLon0.15_PT009H.grib2 2026-04-30 15:51 1.2M
20260430T12Z_MSC_GDPS_WindSpeed_IsbL-0001_LatLon0.15_PT009H.grib2 2026-04-30 15:51 645K
20260430T12Z_MSC_GDPS_WindSpeed_IsbL-0005_LatLon0.15_PT009H.grib2 2026-04-30 15:51 620K
20260430T12Z_MSC_GDPS_WindSpeed_IsbL-0010_LatLon0.15_PT009H.grib2 2026-04-30 15:51 637K
20260430T12Z_MSC_GDPS_WindSpeed_IsbL-0020_LatLon0.15_PT009H.grib2 2026-04-30 15:51 869K
20260430T12Z_MSC_GDPS_WindSpeed_IsbL-0030_LatLon0.15_PT009H.grib2 2026-04-30 15:51 875K
20260430T12Z_MSC_GDPS_WindSpeed_IsbL-0050_LatLon0.15_PT009H.grib2 2026-04-30 15:51 916K
20260430T12Z_MSC_GDPS_WindSpeed_IsbL-0100_LatLon0.15_PT009H.grib2 2026-04-30 15:51 1.1M
20260430T12Z_MSC_GDPS_WindSpeed_IsbL-0150_LatLon0.15_PT009H.grib2 2026-04-30 15:51 1.0M
20260430T12Z_MSC_GDPS_WindSpeed_IsbL-0175_LatLon0.15_PT009H.grib2 2026-04-30 15:51 1.0M
20260430T12Z_MSC_GDPS_WindSpeed_IsbL-0200_LatLon0.15_PT009H.grib2 2026-04-30 15:51 1.1M
20260430T12Z_MSC_GDPS_WindSpeed_IsbL-0225_LatLon0.15_PT009H.grib2 2026-04-30 15:51 1.1M
20260430T12Z_MSC_GDPS_WindSpeed_IsbL-0250_LatLon0.15_PT009H.grib2 2026-04-30 15:51 1.1M
20260430T12Z_MSC_GDPS_WindSpeed_IsbL-0275_LatLon0.15_PT009H.grib2 2026-04-30 15:51 1.1M
20260430T12Z_MSC_GDPS_WindSpeed_IsbL-0300_LatLon0.15_PT009H.grib2 2026-04-30 15:51 1.1M
20260430T12Z_MSC_GDPS_WindSpeed_IsbL-0350_LatLon0.15_PT009H.grib2 2026-04-30 15:51 1.1M
20260430T12Z_MSC_GDPS_WindSpeed_IsbL-0400_LatLon0.15_PT009H.grib2 2026-04-30 15:51 1.1M
20260430T12Z_MSC_GDPS_WindSpeed_IsbL-0450_LatLon0.15_PT009H.grib2 2026-04-30 15:51 1.1M
20260430T12Z_MSC_GDPS_WindSpeed_IsbL-0500_LatLon0.15_PT009H.grib2 2026-04-30 15:51 1.1M
20260430T12Z_MSC_GDPS_WindSpeed_IsbL-0550_LatLon0.15_PT009H.grib2 2026-04-30 15:51 1.1M
20260430T12Z_MSC_GDPS_WindSpeed_IsbL-0600_LatLon0.15_PT009H.grib2 2026-04-30 15:51 1.1M
20260430T12Z_MSC_GDPS_WindSpeed_IsbL-0650_LatLon0.15_PT009H.grib2 2026-04-30 15:51 1.2M
20260430T12Z_MSC_GDPS_WindSpeed_IsbL-0700_LatLon0.15_PT009H.grib2 2026-04-30 15:51 1.5M
20260430T12Z_MSC_GDPS_WindSpeed_IsbL-0750_LatLon0.15_PT009H.grib2 2026-04-30 15:51 1.6M
20260430T12Z_MSC_GDPS_WindSpeed_IsbL-0800_LatLon0.15_PT009H.grib2 2026-04-30 15:51 1.7M
20260430T12Z_MSC_GDPS_WindSpeed_IsbL-0850_LatLon0.15_PT009H.grib2 2026-04-30 15:51 1.7M
20260430T12Z_MSC_GDPS_WindSpeed_IsbL-0875_LatLon0.15_PT009H.grib2 2026-04-30 15:51 1.8M
20260430T12Z_MSC_GDPS_WindSpeed_IsbL-0900_LatLon0.15_PT009H.grib2 2026-04-30 15:51 1.8M
20260430T12Z_MSC_GDPS_WindSpeed_IsbL-0925_LatLon0.15_PT009H.grib2 2026-04-30 15:51 1.9M
20260430T12Z_MSC_GDPS_WindSpeed_IsbL-0950_LatLon0.15_PT009H.grib2 2026-04-30 15:51 1.9M
20260430T12Z_MSC_GDPS_WindSpeed_IsbL-0970_LatLon0.15_PT009H.grib2 2026-04-30 15:51 1.9M
20260430T12Z_MSC_GDPS_WindSpeed_IsbL-0985_LatLon0.15_PT009H.grib2 2026-04-30 15:51 1.9M
20260430T12Z_MSC_GDPS_WindSpeed_IsbL-1000_LatLon0.15_PT009H.grib2 2026-04-30 15:51 1.9M
20260430T12Z_MSC_GDPS_WindSpeed_IsbL-1015_LatLon0.15_PT009H.grib2 2026-04-30 15:51 1.8M
20260430T12Z_MSC_GDPS_WindU_AGL-10m_LatLon0.15_PT009H.grib2 2026-04-30 15:51 1.6M
20260430T12Z_MSC_GDPS_WindU_AGL-120m_LatLon0.15_PT009H.grib2 2026-04-30 15:51 1.0M
20260430T12Z_MSC_GDPS_WindU_AGL-40m_LatLon0.15_PT009H.grib2 2026-04-30 15:51 1.0M
20260430T12Z_MSC_GDPS_WindU_AGL-80m_LatLon0.15_PT009H.grib2 2026-04-30 15:51 1.0M
20260430T12Z_MSC_GDPS_WindU_IsbL-0001_LatLon0.15_PT009H.grib2 2026-04-30 15:51 652K
20260430T12Z_MSC_GDPS_WindU_IsbL-0005_LatLon0.15_PT009H.grib2 2026-04-30 15:51 701K
20260430T12Z_MSC_GDPS_WindU_IsbL-0010_LatLon0.15_PT009H.grib2 2026-04-30 15:51 711K
20260430T12Z_MSC_GDPS_WindU_IsbL-0020_LatLon0.15_PT009H.grib2 2026-04-30 15:51 739K
20260430T12Z_MSC_GDPS_WindU_IsbL-0030_LatLon0.15_PT009H.grib2 2026-04-30 15:51 747K
20260430T12Z_MSC_GDPS_WindU_IsbL-0050_LatLon0.15_PT009H.grib2 2026-04-30 15:51 705K
20260430T12Z_MSC_GDPS_WindU_IsbL-0100_LatLon0.15_PT009H.grib2 2026-04-30 15:51 929K
20260430T12Z_MSC_GDPS_WindU_IsbL-0150_LatLon0.15_PT009H.grib2 2026-04-30 15:51 1.0M
20260430T12Z_MSC_GDPS_WindU_IsbL-0175_LatLon0.15_PT009H.grib2 2026-04-30 15:51 1.0M
20260430T12Z_MSC_GDPS_WindU_IsbL-0200_LatLon0.15_PT009H.grib2 2026-04-30 15:51 849K
20260430T12Z_MSC_GDPS_WindU_IsbL-0225_LatLon0.15_PT009H.grib2 2026-04-30 15:51 858K
20260430T12Z_MSC_GDPS_WindU_IsbL-0250_LatLon0.15_PT009H.grib2 2026-04-30 15:51 861K
20260430T12Z_MSC_GDPS_WindU_IsbL-0275_LatLon0.15_PT009H.grib2 2026-04-30 15:51 888K
20260430T12Z_MSC_GDPS_WindU_IsbL-0300_LatLon0.15_PT009H.grib2 2026-04-30 15:51 878K
20260430T12Z_MSC_GDPS_WindU_IsbL-0350_LatLon0.15_PT009H.grib2 2026-04-30 15:51 894K
20260430T12Z_MSC_GDPS_WindU_IsbL-0400_LatLon0.15_PT009H.grib2 2026-04-30 15:51 1.1M
20260430T12Z_MSC_GDPS_WindU_IsbL-0450_LatLon0.15_PT009H.grib2 2026-04-30 15:51 1.1M
20260430T12Z_MSC_GDPS_WindU_IsbL-0500_LatLon0.15_PT009H.grib2 2026-04-30 15:51 1.1M
20260430T12Z_MSC_GDPS_WindU_IsbL-0550_LatLon0.15_PT009H.grib2 2026-04-30 15:51 1.1M
20260430T12Z_MSC_GDPS_WindU_IsbL-0600_LatLon0.15_PT009H.grib2 2026-04-30 15:51 1.2M
20260430T12Z_MSC_GDPS_WindU_IsbL-0650_LatLon0.15_PT009H.grib2 2026-04-30 15:51 1.2M
20260430T12Z_MSC_GDPS_WindU_IsbL-0700_LatLon0.15_PT009H.grib2 2026-04-30 15:51 1.2M
20260430T12Z_MSC_GDPS_WindU_IsbL-0750_LatLon0.15_PT009H.grib2 2026-04-30 15:51 1.3M
20260430T12Z_MSC_GDPS_WindU_IsbL-0800_LatLon0.15_PT009H.grib2 2026-04-30 15:51 1.4M
20260430T12Z_MSC_GDPS_WindU_IsbL-0850_LatLon0.15_PT009H.grib2 2026-04-30 15:51 1.4M
20260430T12Z_MSC_GDPS_WindU_IsbL-0875_LatLon0.15_PT009H.grib2 2026-04-30 15:51 1.5M
20260430T12Z_MSC_GDPS_WindU_IsbL-0900_LatLon0.15_PT009H.grib2 2026-04-30 15:51 1.5M
20260430T12Z_MSC_GDPS_WindU_IsbL-0925_LatLon0.15_PT009H.grib2 2026-04-30 15:51 1.5M
20260430T12Z_MSC_GDPS_WindU_IsbL-0950_LatLon0.15_PT009H.grib2 2026-04-30 15:51 1.4M
20260430T12Z_MSC_GDPS_WindU_IsbL-0970_LatLon0.15_PT009H.grib2 2026-04-30 15:51 1.4M
20260430T12Z_MSC_GDPS_WindU_IsbL-0985_LatLon0.15_PT009H.grib2 2026-04-30 15:51 1.7M
20260430T12Z_MSC_GDPS_WindU_IsbL-1000_LatLon0.15_PT009H.grib2 2026-04-30 15:51 1.7M
20260430T12Z_MSC_GDPS_WindU_IsbL-1015_LatLon0.15_PT009H.grib2 2026-04-30 15:51 1.7M
20260430T12Z_MSC_GDPS_WindV_AGL-10m_LatLon0.15_PT009H.grib2 2026-04-30 15:51 1.6M
20260430T12Z_MSC_GDPS_WindV_AGL-120m_LatLon0.15_PT009H.grib2 2026-04-30 15:51 1.0M
20260430T12Z_MSC_GDPS_WindV_AGL-40m_LatLon0.15_PT009H.grib2 2026-04-30 15:51 1.0M
20260430T12Z_MSC_GDPS_WindV_AGL-80m_LatLon0.15_PT009H.grib2 2026-04-30 15:51 1.0M
20260430T12Z_MSC_GDPS_WindV_IsbL-0001_LatLon0.15_PT009H.grib2 2026-04-30 15:51 784K
20260430T12Z_MSC_GDPS_WindV_IsbL-0005_LatLon0.15_PT009H.grib2 2026-04-30 15:51 774K
20260430T12Z_MSC_GDPS_WindV_IsbL-0010_LatLon0.15_PT009H.grib2 2026-04-30 15:51 805K
20260430T12Z_MSC_GDPS_WindV_IsbL-0020_LatLon0.15_PT009H.grib2 2026-04-30 15:51 858K
20260430T12Z_MSC_GDPS_WindV_IsbL-0030_LatLon0.15_PT009H.grib2 2026-04-30 15:51 861K
20260430T12Z_MSC_GDPS_WindV_IsbL-0050_LatLon0.15_PT009H.grib2 2026-04-30 15:51 912K
20260430T12Z_MSC_GDPS_WindV_IsbL-0100_LatLon0.15_PT009H.grib2 2026-04-30 15:51 1.1M
20260430T12Z_MSC_GDPS_WindV_IsbL-0150_LatLon0.15_PT009H.grib2 2026-04-30 15:51 1.0M
20260430T12Z_MSC_GDPS_WindV_IsbL-0175_LatLon0.15_PT009H.grib2 2026-04-30 15:51 1.0M
20260430T12Z_MSC_GDPS_WindV_IsbL-0200_LatLon0.15_PT009H.grib2 2026-04-30 15:51 851K
20260430T12Z_MSC_GDPS_WindV_IsbL-0225_LatLon0.15_PT009H.grib2 2026-04-30 15:51 858K
20260430T12Z_MSC_GDPS_WindV_IsbL-0250_LatLon0.15_PT009H.grib2 2026-04-30 15:51 859K
20260430T12Z_MSC_GDPS_WindV_IsbL-0275_LatLon0.15_PT009H.grib2 2026-04-30 15:51 884K
20260430T12Z_MSC_GDPS_WindV_IsbL-0300_LatLon0.15_PT009H.grib2 2026-04-30 15:51 872K
20260430T12Z_MSC_GDPS_WindV_IsbL-0350_LatLon0.15_PT009H.grib2 2026-04-30 15:51 887K
20260430T12Z_MSC_GDPS_WindV_IsbL-0400_LatLon0.15_PT009H.grib2 2026-04-30 15:51 889K
20260430T12Z_MSC_GDPS_WindV_IsbL-0450_LatLon0.15_PT009H.grib2 2026-04-30 15:51 891K
20260430T12Z_MSC_GDPS_WindV_IsbL-0500_LatLon0.15_PT009H.grib2 2026-04-30 15:51 1.1M
20260430T12Z_MSC_GDPS_WindV_IsbL-0550_LatLon0.15_PT009H.grib2 2026-04-30 15:51 1.1M
20260430T12Z_MSC_GDPS_WindV_IsbL-0600_LatLon0.15_PT009H.grib2 2026-04-30 15:51 1.1M
20260430T12Z_MSC_GDPS_WindV_IsbL-0650_LatLon0.15_PT009H.grib2 2026-04-30 15:51 1.2M
20260430T12Z_MSC_GDPS_WindV_IsbL-0700_LatLon0.15_PT009H.grib2 2026-04-30 15:51 1.2M
20260430T12Z_MSC_GDPS_WindV_IsbL-0750_LatLon0.15_PT009H.grib2 2026-04-30 15:51 1.2M
20260430T12Z_MSC_GDPS_WindV_IsbL-0800_LatLon0.15_PT009H.grib2 2026-04-30 15:51 1.3M
20260430T12Z_MSC_GDPS_WindV_IsbL-0850_LatLon0.15_PT009H.grib2 2026-04-30 15:51 1.4M
20260430T12Z_MSC_GDPS_WindV_IsbL-0875_LatLon0.15_PT009H.grib2 2026-04-30 15:51 1.4M
20260430T12Z_MSC_GDPS_WindV_IsbL-0900_LatLon0.15_PT009H.grib2 2026-04-30 15:51 1.5M
20260430T12Z_MSC_GDPS_WindV_IsbL-0925_LatLon0.15_PT009H.grib2 2026-04-30 15:51 1.5M
20260430T12Z_MSC_GDPS_WindV_IsbL-0950_LatLon0.15_PT009H.grib2 2026-04-30 15:51 1.4M
20260430T12Z_MSC_GDPS_WindV_IsbL-0970_LatLon0.15_PT009H.grib2 2026-04-30 15:51 1.4M
20260430T12Z_MSC_GDPS_WindV_IsbL-0985_LatLon0.15_PT009H.grib2 2026-04-30 15:51 1.4M
20260430T12Z_MSC_GDPS_WindV_IsbL-1000_LatLon0.15_PT009H.grib2 2026-04-30 15:51 1.4M
20260430T12Z_MSC_GDPS_WindV_IsbL-1015_LatLon0.15_PT009H.grib2 2026-04-30 15:51 1.6M